[[{"header":{"parameterUnit":"m.s-1","parameterCategory":1,"la1":30.2991,"la2":30.254,"lo1":-89.0895,"lo2":-89.0444,"dy":0.0017,"dx":0.0017,"nx":28,"ny":28,"refTime":"2025-01-25T09:00:00:Z","depth":0,"parameterNumber":2,"parameterNumberName":"U-component_of_WINDS"},"data":[0,0,0,0,0,0,0,0,0,0,0,0,0,0,0,0,0,0,0,0,0,0,0,0,0,0,0,0,0,0,0,0,0,0,0,0,0,0,0,0,0,0,0,0,0,0,0,0,0,0,0,0,0,0,0,0,0,0,-3.9893,-3.9893,0,-3.9908,-3.9908,-3.9908,-3.9777,-3.9773,-3.9769,-3.9766,-3.9787,-3.979,-3.9794,0,0,0,0,0,0,0,0,0,0,0,0,0,-3.9756,-3.9759,-3.9893,-3.9893,-3.9893,-3.9908,-3.9908,-3.9908,-3.9777,-3.9773,-3.9768,-3.9764,-3.9785,-3.979,-3.9795,0,0,0,0,0,0,0,0,0,0,0,0,0,-3.9798,-3.976,-3.9893,-3.9829,-3.9824,-3.9908,-3.9908,-3.9908,-3.9778,-3.9773,-3.9767,-3.9762,-3.9784,-3.9789,-3.9795,-3.9942,0,0,-3.9813,-3.9816,0,0,0,0,0,0,0,0,-3.9796,-3.9803,-3.9838,-3.9834,-3.9828,-3.9835,-3.9867,-3.992,-3.978,-3.9796,-3.9766,-3.9759,-3.9807,-3.9811,-3.9826,-3.9943,-3.9944,-3.9814,-3.9818,-3.982,-3.9822,0,0,0,0,0,0,0,-3.9793,-3.9802,-3.9899,-3.9839,-3.9833,-3.9802,-3.9802,-3.9876,-3.9832,-3.9794,-3.9784,-3.9788,-3.9803,-3.9821,-3.9825,-3.9944,-3.9814,-3.9819,-3.9823,-3.9825,-4.0185,-4.019,0,0,0,0,0,0,-3.9798,-3.98,-3.9898,-3.9899,-3.9798,-3.9809,-3.9809,-3.9838,-3.9831,-3.9825,-3.9792,-3.9782,-3.9813,-3.9819,-3.9826,-3.9999,-3.982,-3.9826,-3.9829,-4.0179,-4.0186,-4.0193,0,0,0,0,0,0,-3.9795,-3.9808,-3.9897,-3.9847,-3.9856,-3.9817,-3.9851,-3.9841,-3.9858,-3.983,-3.9822,-3.9818,-3.9809,-3.9817,-3.9914,-3.9998,-3.9828,-3.9834,-4.0172,-4.0181,-4.0189,-4.0345,0,0,0,0,0,0,-3.9792,-3.9808,-3.9862,-3.9849,-3.9859,-3.9985,-3.9856,-3.9846,-3.9868,-3.9854,-3.9852,-3.9846,-3.9805,-3.9906,-3.992,-4.0003,-3.9838,-4.0164,-4.0176,-4.0186,-4.0332,-4.0358,-4.0381,0,0,0,0,0,-3.9788,-3.9905,-3.9865,-3.9878,-3.9926,-3.9989,-3.9995,-3.9945,-3.9875,-3.993,-3.9913,-3.9846,-3.9986,-3.9917,-3.9932,-4.0017,-4.0159,-4.0173,-4.0186,-4.0322,-4.0353,-4.038,0,0,0,0,0,0,-3.993,-3.9903,-3.9857,-3.9974,-3.9985,-3.9967,-4.0035,-3.998,-4.0012,-3.9997,-3.9935,-3.9935,-4.0044,-4.004,-3.9964,-4.016,-4.006,-4.0078,-4.0159,-4.0189,-4.0212,-4.0212,-3.9843,0,0,0,0,0,-3.9975,-4.0027,-4.0001,-4.0107,-4.0114,-4.0074,-4.01,-4.006,-4.0069,-4.0074,-4.0063,-4.0076,-4.0123,-4.0155,-4.0197,-4.0331,-4.033,-4.0397,-4.0421,-4.0441,-4.0457,-4.0531,-4.0561,-4.0237,-4.0237,-4.0236,0,0,-4.0068,-4.006,-4.0097,-4.0135,-4.0139,-4.0197,-4.0079,-4.0144,-4.0188,-4.0084,-4.0175,-4.0168,-4.0179,-4.0296,-4.0346,-4.0296,-4.0547,-4.0458,-4.0475,-4.048,-4.0548,-4.0579,-4.0606,-4.0246,-4.0244,-4.0243,0,0,-4.0268,-4.0266,-4.0355,-4.0361,-4.0368,-4.034,-4.0362,-4.0353,-4.0344,-4.0434,-4.0358,-4.0409,-4.0491,-4.0502,-4.0519,-4.0725,-4.0667,-4.0741,-4.0867,-4.0939,-4.0965,-4.0987,-4.1064,-4.1091,-4.0756,-4.0757,-4.0757,0,-4.0384,-4.0466,-4.0408,-4.0479,-4.05,-4.0407,-4.0499,-4.0508,-4.0529,-4.0546,-4.0488,-4.059,-4.0591,-4.071,-4.0761,-4.0777,-4.0801,-4.0741,-4.0966,-4.0988,-4.1008,-4.108,-4.1108,-4.0766,-4.0765,-4.0764,-4.0763,0,-4.0609,-4.0668,-4.0739,-4.0761,-4.0789,-4.087,-4.0826,-4.0862,-4.0821,-4.08,-4.0895,-4.0892,-4.0933,-4.0958,-4.0918,-4.1073,-4.1041,-4.0976,-4.0875,-4.1049,-4.1115,-4.1142,-4.0779,-4.0776,-4.0773,-4.0771,0,0,-4.0899,-4.0888,-4.0916,-4.0925,-4.0927,-4.0972,-4.105,-4.1088,-4.1122,-4.1139,-4.1205,-4.1277,-4.1217,-4.1236,-4.1197,-4.126,-4.1427,-4.1187,-4.1186,-4.1234,-4.1601,-4.1652,-4.1684,-4.1387,-4.1392,-4.1396,-4.1601,0,-4.1096,-4.1227,-4.1177,-4.1313,-4.1368,-4.1282,-4.135,-4.136,-4.1344,-4.139,-4.1371,-4.1425,-4.134,-4.1351,-4.141,-4.1394,-4.15,-4.1379,-4.1451,-4.1454,-4.1452,-4.1718,-4.1772,-4.1965,-4.1626,-4.163,-4.1634,0,-4.1342,-4.137,-4.1511,-4.1505,-4.1526,-4.1588,-4.162,-4.1664,-4.1675,-4.1658,-4.1681,-4.1628,-4.1707,-4.1605,-4.1714,-4.1632,-4.1659,-4.1656,-4.1662,-4.1669,-4.1556,-4.1734,-4.2025,-4.2055,-4.1674,-4.167,-4.1668,0,-4.1543,-4.1615,-4.1709,-4.172,-4.1714,-4.176,-4.1761,-4.1765,-4.1792,-4.1821,-4.1838,-4.1877,-4.1899,-4.1931,-4.1891,-4.182,-4.2007,-4.1901,-4.1998,-4.2,-4.2043,-4.2041,-4.2344,-4.2057,-4.2057,-4.2056,-4.2056,0,-4.1769,-4.1859,-4.1799,-4.1857,-4.1957,-4.19,-4.2001,-4.1992,-4.1997,-4.2054,-4.1982,-4.2037,-4.198,-4.2031,-4.2001,-4.2098,-4.2107,-4.2098,-4.209,-4.2106,-4.2108,-4.2124,-4.211,-4.2064,-4.2062,-4.2061,-4.2059,0,-4.201,-4.1973,-4.207,-4.2057,-4.2056,-4.213,-4.212,-4.2175,-4.2153,-4.2226,-4.224,-4.2207,-4.2264,-4.2227,-4.2284,-4.2263,-4.2391,-4.2362,-4.2387,-4.238,-4.248,-4.2472,-4.2806,-4.2848,-4.2532,-4.2535,-4.2538,0,-4.2157,-4.2224,-4.2219,-4.2251,-4.2255,-4.2308,-4.2335,-4.2283,-4.2315,-4.2332,-4.2386,-4.2436,-4.2473,-4.2567,-4.255,-4.2594,-4.2567,-4.2681,-4.2574,-4.2589,-4.2572,-4.2569,-4.2577,-4.2704,-4.2707,-4.271,-4.2713,0,-4.2423,-4.2402,-4.2443,-4.2479,-4.2513,-4.2539,-4.2559,-4.259,-4.2538,-4.2578,-4.2633,-4.2662,-4.272,-4.2772,-4.2809,-4.2811,-4.2756,-4.2747,-4.2772,-4.279,-4.2803,-4.28,-4.2449,-4.274,-4.2737,-4.2735,-4.2734,-4.2732,-4.2623,-4.268,-4.2685,-4.2734,-4.2744,-4.2765,-4.2816,-4.2801,-4.2846,-4.2889,-4.2855,-4.2923,-4.2934,-4.2978,-4.2988,-4.3041,-4.2995,-4.3031,-4.3041,-4.3051,-4.3066,-4.2793,-4.3048,-4.3047,-4.3046,-4.3046,-4.3045,0,-4.2888,-4.2887,-4.2932,-4.2963,-4.3002,-4.2944,-4.2964,-4.3001,-4.3061,-4.3075,-4.3113,-4.3179,-4.3229,-4.3216,-4.3262,-4.3308,-4.3283,-4.3322,-4.3319,-4.3321,-4.3104,-4.3078,-4.3341,-4.3341,-4.3341,-4.3341,-4.3341,-4.3341,-4.303,-4.3124,-4.3104,-4.3203,-4.3201,-4.3266,-4.3283,-4.3303,-4.3314,-4.3391,-4.3432,-4.3422,-4.3426,-4.3472,-4.3516,-4.3511,-4.3533,-4.3581,-4.3568,-4.3365,-4.3336,-4.3308,-4.3284,-4.3586,-4.3586,-4.378,-4.3782,-4.3784]},{"header":{"parameterUnit":"m.s-1","parameterCategory":1,"la1":30.2991,"la2":30.254,"lo1":-89.0895,"lo2":-89.0444,"dy":0.0017,"dx":0.0017,"nx":28,"ny":28,"refTime":"2025-01-25T09:00:00:Z","depth":0,"parameterNumber":3,"parameterNumberName":"V-component_of_WINDS"},"data":[0,0,0,0,0,0,0,0,0,0,0,0,0,0,0,0,0,0,0,0,0,0,0,0,0,0,0,0,0,0,0,0,0,0,0,0,0,0,0,0,0,0,0,0,0,0,0,0,0,0,0,0,0,0,0,0,0,0,-0.4243,-0.4244,0,-0.436,-0.4361,-0.4362,-0.4356,-0.4354,-0.4353,-0.4351,-0.4477,-0.4482,-0.4487,0,0,0,0,0,0,0,0,0,0,0,0,0,-0.4017,-0.4021,-0.4242,-0.4244,-0.4245,-0.436,-0.4361,-0.4363,-0.4356,-0.4354,-0.4352,-0.435,-0.4475,-0.4481,-0.4487,0,0,0,0,0,0,0,0,0,0,0,0,0,-0.4123,-0.4023,-0.4242,-0.4256,-0.4258,-0.4359,-0.4361,-0.4363,-0.4357,-0.4354,-0.4352,-0.4349,-0.4473,-0.4481,-0.4488,-0.4585,0,0,-0.4511,-0.4514,0,0,0,0,0,0,0,0,-0.4117,-0.4131,-0.4252,-0.4255,-0.4258,-0.4341,-0.4328,-0.4438,-0.4357,-0.432,-0.4351,-0.4348,-0.4434,-0.4444,-0.4472,-0.4591,-0.4596,-0.4511,-0.4516,-0.4519,-0.4521,0,0,0,0,0,0,0,-0.411,-0.4126,-0.4289,-0.4254,-0.4257,-0.4257,-0.427,-0.4349,-0.439,-0.4323,-0.4322,-0.4336,-0.4435,-0.4465,-0.4475,-0.4598,-0.4511,-0.4518,-0.4522,-0.4525,-0.4802,-0.4804,0,0,0,0,0,0,-0.4099,-0.412,-0.4285,-0.4292,-0.4179,-0.4264,-0.4277,-0.4317,-0.4389,-0.4397,-0.4338,-0.4335,-0.4454,-0.4467,-0.448,-0.4598,-0.4519,-0.4526,-0.453,-0.4799,-0.4802,-0.4805,0,0,0,0,0,0,-0.4094,-0.4113,-0.4281,-0.4206,-0.4227,-0.427,-0.4315,-0.432,-0.435,-0.4401,-0.4408,-0.4361,-0.4452,-0.4469,-0.4558,-0.4602,-0.4529,-0.4536,-0.4795,-0.48,-0.4804,-0.4835,0,0,0,0,0,0,-0.4087,-0.4112,-0.4148,-0.4207,-0.4231,-0.4356,-0.4317,-0.4324,-0.4362,-0.436,-0.4424,-0.4432,-0.4452,-0.4547,-0.4566,-0.4611,-0.4542,-0.4792,-0.4797,-0.4802,-0.483,-0.484,-0.4848,0,0,0,0,0,-0.4079,-0.4154,-0.415,-0.417,-0.4277,-0.4358,-0.4373,-0.4391,-0.4366,-0.4404,-0.4436,-0.443,-0.4594,-0.4556,-0.4577,-0.4625,-0.4789,-0.4796,-0.4802,-0.4826,-0.4838,-0.4848,0,0,0,0,0,0,-0.4101,-0.4162,-0.4158,-0.4253,-0.43,-0.4357,-0.4405,-0.4403,-0.446,-0.4456,-0.4478,-0.4493,-0.4582,-0.4613,-0.457,-0.4723,-0.4688,-0.4699,-0.47,-0.4711,-0.472,-0.4711,-0.4548,0,0,0,0,0,-0.4116,-0.4175,-0.4226,-0.4305,-0.4328,-0.4363,-0.4399,-0.4409,-0.4459,-0.448,-0.4519,-0.4569,-0.4632,-0.4673,-0.4734,-0.4834,-0.4848,-0.4877,-0.4886,-0.4893,-0.4903,-0.4958,-0.4972,-0.4827,-0.4827,-0.4827,0,0,-0.415,-0.419,-0.4226,-0.431,-0.4348,-0.441,-0.438,-0.4447,-0.4493,-0.4491,-0.4577,-0.4607,-0.4665,-0.476,-0.4804,-0.4788,-0.4946,-0.4902,-0.4907,-0.4913,-0.4967,-0.498,-0.4993,-0.4831,-0.483,-0.483,0,0,-0.4242,-0.4278,-0.4348,-0.4385,-0.4442,-0.4464,-0.4481,-0.4537,-0.4557,-0.4643,-0.4642,-0.4698,-0.4806,-0.4847,-0.4882,-0.4988,-0.4986,-0.5008,-0.5055,-0.5109,-0.512,-0.513,-0.5169,-0.5182,-0.5017,-0.5017,-0.5017,0,-0.4277,-0.4369,-0.4384,-0.4451,-0.4489,-0.4486,-0.4558,-0.4594,-0.4669,-0.4695,-0.4676,-0.481,-0.4849,-0.4954,-0.4979,-0.5007,-0.5028,-0.5001,-0.5117,-0.5127,-0.5137,-0.5174,-0.5189,-0.5019,-0.5019,-0.5019,-0.5019,0,-0.4409,-0.4472,-0.4522,-0.4591,-0.4634,-0.4703,-0.4731,-0.4772,-0.4778,-0.4803,-0.489,-0.4937,-0.5006,-0.5032,-0.5039,-0.5138,-0.5126,-0.5111,-0.5078,-0.5153,-0.5188,-0.5203,-0.5023,-0.5022,-0.5021,-0.502,0,0,-0.452,-0.4595,-0.4613,-0.4645,-0.4706,-0.4757,-0.4826,-0.4892,-0.4927,-0.4978,-0.5037,-0.5127,-0.5114,-0.5154,-0.5166,-0.5213,-0.5294,-0.5193,-0.5194,-0.5211,-0.5406,-0.5417,-0.5433,-0.5292,-0.5295,-0.5297,-0.5401,0,-0.4619,-0.4739,-0.4755,-0.4862,-0.4922,-0.492,-0.498,-0.5025,-0.5049,-0.5104,-0.5132,-0.5195,-0.5172,-0.5196,-0.5243,-0.5275,-0.5334,-0.5267,-0.5349,-0.5352,-0.5336,-0.5452,-0.5464,-0.556,-0.5415,-0.5418,-0.5419,0,-0.4751,-0.4804,-0.4916,-0.4969,-0.4994,-0.5048,-0.5109,-0.5161,-0.5213,-0.5227,-0.527,-0.5276,-0.5349,-0.531,-0.5412,-0.5366,-0.54,-0.5421,-0.5425,-0.5435,-0.5391,-0.5466,-0.5592,-0.5606,-0.5441,-0.5439,-0.5438,0,-0.4822,-0.492,-0.5,-0.5027,-0.509,-0.5128,-0.5157,-0.5205,-0.5243,-0.5297,-0.5323,-0.5385,-0.542,-0.5469,-0.5492,-0.5462,-0.5592,-0.5555,-0.5607,-0.5607,-0.5636,-0.5634,-0.577,-0.5656,-0.5656,-0.5656,-0.5655,0,-0.4932,-0.5001,-0.5033,-0.5082,-0.516,-0.5177,-0.5254,-0.5282,-0.5324,-0.538,-0.5382,-0.5435,-0.5461,-0.5518,-0.5537,-0.5618,-0.5634,-0.5648,-0.5653,-0.5649,-0.5647,-0.5673,-0.5667,-0.566,-0.5659,-0.5658,-0.5657,0,-0.5024,-0.5048,-0.5135,-0.5187,-0.5201,-0.5257,-0.5302,-0.535,-0.5373,-0.5443,-0.5461,-0.5498,-0.5565,-0.5592,-0.5675,-0.5687,-0.5781,-0.578,-0.5763,-0.5765,-0.5815,-0.5811,-0.5974,-0.5997,-0.5866,-0.5867,-0.5868,0,-0.5093,-0.5146,-0.5203,-0.5239,-0.5268,-0.5327,-0.5365,-0.5384,-0.5425,-0.5486,-0.5528,-0.5594,-0.5648,-0.5755,-0.5791,-0.5854,-0.5855,-0.5908,-0.5865,-0.5859,-0.5857,-0.5854,-0.586,-0.5916,-0.5918,-0.5919,-0.592,0,-0.5214,-0.5222,-0.5277,-0.5335,-0.5381,-0.5428,-0.5475,-0.5505,-0.5531,-0.5577,-0.5644,-0.5686,-0.5769,-0.5835,-0.59,-0.5931,-0.5931,-0.5932,-0.5948,-0.5946,-0.5934,-0.5942,-0.5786,-0.5929,-0.5928,-0.5928,-0.5927,-0.5927,-0.5297,-0.5344,-0.5391,-0.5451,-0.5488,-0.5531,-0.5578,-0.5606,-0.5662,-0.573,-0.5738,-0.581,-0.586,-0.5947,-0.598,-0.6038,-0.6025,-0.6047,-0.6053,-0.6059,-0.6062,-0.5923,-0.605,-0.605,-0.605,-0.6049,-0.6049,0,-0.5419,-0.5448,-0.5503,-0.5567,-0.5615,-0.5607,-0.5658,-0.5699,-0.5762,-0.5807,-0.5859,-0.5937,-0.6001,-0.604,-0.6105,-0.6144,-0.6145,-0.616,-0.6158,-0.6166,-0.607,-0.6051,-0.6158,-0.6158,-0.6158,-0.6158,-0.6158,-0.6158,-0.5487,-0.5566,-0.558,-0.5677,-0.5706,-0.5776,-0.5805,-0.5845,-0.5881,-0.5967,-0.6019,-0.6043,-0.6087,-0.6154,-0.6213,-0.6223,-0.6248,-0.6264,-0.6273,-0.6184,-0.6172,-0.6162,-0.6144,-0.6269,-0.6269,-0.6364,-0.6365,-0.6365]}]]